Location: Gairloch Mountain Observatory
(46.1383°N, 60.9640°W)
Time: 20:12:42
(UTC-04:00)

Daily predictions for brighter satellites

Satellite Brightness Start Highest point End
(mag) Time Altitude Azimuth Time Altitude Azimuth Time Altitude Azimuth
Cosmos 1459 Rocket 4.3 16:44:58 10° SSW 16:51:20 78° W 16:57:40 10° N
NOSS 3-2 (A) 4.4 16:45:40 10° WSW 16:51:30 44° NW 16:58:00 10° NNE
Aureole 3 4.0 16:47:50 10° N 16:52:23 71° E 16:58:12 10° SSE
Cosmos 1741 Rocket 4.4 16:51:01 10° SSW 16:56:19 73° WNW 17:01:41 10° NNE
CSL-04 Debris 4.3 16:51:39 10° SE 16:56:54 53° ENE 17:02:11 10° N
BREEZE-M R/B 1.9 16:54:40 10° WNW 16:57:06 74° NNE 17:00:26 10° ESE
IDEFIX/ARIANE 42P 3.4 16:53:08 10° S 16:58:17 57° W 17:03:26 10° NNW
USA 161 0.9 16:57:27 10° N 16:59:22 65° WNW 17:01:24 10° SSW
Cosmos 44 4.4 16:56:58 10° NNW 17:00:36 22° NE 17:04:20 10° E
Cosmos 1833 Rocket 3.5 16:56:51 10° N 17:01:44 29° NE 17:06:34 10° ESE
Cosmos 1633 4.1 16:59:39 10° NNE 17:02:06 17° ENE 17:04:32 10° ESE
Cosmos 1346 3.1 17:01:36 10° SSW 17:03:49 53° WNW 17:06:02 10° N
CENTAUR R/B 2.6 16:59:41 10° SW 17:05:48 89° ESE 17:12:52 10° NE
Cosmos 1437 2.9 17:04:38 10° S 17:07:42 47° E 17:10:47 10° NNE
Cosmos 1844 3.8 17:02:06 10° SSW 17:07:52 80° ESE 17:13:42 10° NNE
Cosmos 1908 Rocket 4.1 17:04:41 10° N 17:08:40 34° ENE 17:12:37 10° SE
Cosmos 2233 Rocket 4.2 17:03:11 10° SSE 17:09:08 49° E 17:15:05 10° NNE
Cosmos 1733 Rocket 3.0 17:05:41 10° N 17:10:08 82° E 17:14:35 10° S
Cosmos 2263 Rocket 4.2 17:08:19 10° W 17:12:40 22° NW 17:17:01 10° N
Cosmos 2278 Rocket 2.6 17:07:21 10° S 17:12:41 44° ESE 17:18:02 10° NE
Meteor 1-26 Rocket 4.3 17:09:34 10° S 17:14:59 56° E 17:20:23 10° NNE
SPOT 3 Rocket 4.5 17:11:15 10° ESE 17:15:31 26° ENE 17:19:48 10° N
ALOS 3.4 17:14:36 10° ESE 17:18:05 21° ENE 17:21:36 10° NNE
CORIOLIS 4.2 17:13:48 10° SSE 17:19:10 63° ENE 17:24:34 10° N
COSMOS 2455 2.9 17:14:08 10° SSW 17:20:07 77° ESE 17:26:10 10° NE
Cosmos 2242 Rocket 3.7 17:17:21 10° S 17:21:55 83° W 17:26:28 10° N
Timation 1 Rocket 4.4 17:18:03 10° SSW 17:23:58 67° ESE 17:29:58 10° NNE
Cosmos 1862 Rocket 3.5 17:19:43 10° S 17:24:09 81° E 17:28:38 10° N
Sich 1 Rocket 3.9 17:20:59 10° N 17:25:13 42° ENE 17:29:27 10° SSE
ERBS 4.0 17:22:15 10° WNW 17:25:24 36° SW 17:28:34 10° SSE
AQUARIUS 4.1 17:21:25 10° SSE 17:25:55 80° ENE 17:30:25 10° N
SMAP 3.0 17:21:34 10° SSE 17:26:13 82° ENE 17:30:53 10° NNW
CZ-4C R/B 3.4 17:26:04 10° NNW 17:32:20 36° NE 17:38:45 12° E
Meteor 1-28 Rocket 3.3 17:28:58 10° NNE 17:32:37 53° E 17:36:15 10° S
CZ-4 R/B 1.1 17:29:50 10° SSE 17:33:41 74° ENE 17:37:31 10° N
Cosmos 1933 4.4 17:31:13 10° SSW 17:35:06 46° WNW 17:39:00 10° N
Okean 1-7 3.8 17:35:31 10° SSE 17:39:24 32° E 17:43:19 10° NNE
Cosmos 1606 3.2 17:37:03 10° SSE 17:40:32 36° E 17:43:36 13° NNE
Cosmos 1484 Rocket 3.3 17:38:37 10° S 17:42:26 62° W 17:46:22 10° NNW
Landsat 4 3.8 17:40:27 10° NNE 17:44:10 51° ESE 17:47:52 10° S
EO 1 Del DPAF 3.9 17:44:09 18° NE 17:46:27 34° E 17:49:57 10° SSE
Cosmos 1763 Rocket 4.1 17:43:08 10° NNW 17:48:17 61° WSW 17:53:20 10° S
Cosmos 2082 Rocket 2.2 17:44:20 10° NNW 17:50:00 59° ENE 17:55:35 10° SE
Cosmos 1782 Rocket 3.5 17:49:00 10° N 17:53:18 58° ENE 17:57:35 10° SSE
Meteor 1-20 Rocket 4.1 17:47:51 10° N 17:53:28 89° ENE 17:58:58 10° S
ATLAS 3B R/B 4.4 17:48:30 10° WNW 17:53:41 21° NNW 17:58:44 10° NNE
Meteor 1-25 Rocket 4.4 17:47:48 10° NNW 17:53:42 84° W 17:59:30 10° S
METEOR-M 4.0 17:50:52 10° SSE 17:56:11 75° ENE 18:01:32 10° N
COSMO-SKYMED 1 2.7 17:54:57 11° NNE 17:59:01 52° E 18:03:15 10° S
USA 116 3.9 17:54:28 10° NNE 17:59:06 88° WNW 18:03:06 10° SSW
YAOGAN 1 2.7 17:57:26 10° S 18:01:45 79° WSW 18:06:07 10° NNW
Cosmos 1602 4.1 17:59:17 10° N 18:02:54 38° ENE 18:06:30 10° SE
Cosmos 1782 2.7 18:01:03 10° S 18:05:03 71° E 18:08:37 13° NNE
Nadezhda 4 Rocket 4.3 17:59:25 10° N 18:05:06 38° ENE 18:10:44 10° SE
Cosmos 1072 Rocket 4.5 17:59:11 10° S 18:05:18 63° E 18:11:33 10° NNE
BREEZE-M DEB (TANK) 2.1 18:05:40 10° WNW 18:07:52 53° NNE 18:08:37 42° ENE
Timation 2 Rocket 4.4 18:04:52 10° NNW 18:11:23 44° NE 18:14:56 25° ESE
USA 234 3.6 18:08:13 26° ENE 18:11:33 46° SE 18:17:46 10° SSW
SL-27 R/B 3.3 18:08:36 10° NNW 18:11:50 47° WSW 18:15:04 10° S
Cosmos 2034 Rocket 4.2 18:06:01 10° SSE 18:12:04 48° E 18:18:08 10° NNE
ERS-2 2.4 18:08:39 10° S 18:12:19 68° WSW 18:16:00 10° NNW
Cosmos 405 Rocket 3.4 18:09:47 10° SSE 18:12:32 35° SE 18:12:32 35° SE
Cosmos 44 Rocket 3.2 18:08:50 10° NNW 18:13:40 63° NE 18:16:17 27° SE
Cosmos 1503 Rocket 3.9 18:09:36 10° S 18:14:48 64° ESE 18:17:56 24° NNE
Cosmos 540 Rocket 3.4 18:09:49 10° NNW 18:15:01 88° WSW 18:20:11 10° SSE
Cosmos 2221 Rocket 3.4 18:14:06 10° S 18:18:30 74° E 18:21:48 18° NNE
Lacrosse 5 3.4 18:14:35 10° WNW 18:18:45 25° N 18:20:31 20° NNE
CZ-2C R/B 4.3 18:15:07 10° N 18:19:29 56° WNW 18:23:55 10° SSW
Meteor 1-27 Rocket 4.0 18:14:31 10° SSE 18:20:07 47° E 18:24:06 19° NNE
MTI 4.1 18:18:36 27° N 18:20:10 63° WNW 18:23:21 10° SSW
Cosmos 1092 Rocket 4.4 18:16:25 10° N 18:22:02 36° ENE 18:22:37 35° E
Meteor 2-20 4.3 18:17:38 10° N 18:23:43 63° ENE 18:29:42 10° SSE
Cosmos 1703 Rocket 4.0 18:19:22 10° SSW 18:23:47 63° W 18:28:14 10° N
Cosmos 292 Rocket 3.6 18:19:13 10° NNW 18:23:59 72° ENE 18:27:43 16° SSE
DMSP B5D1-3 4.5 18:22:42 22° NNE 18:25:59 60° ESE 18:31:04 10° S
Meteor 1-10 Rocket 4.2 18:23:15 10° S 18:28:56 87° E 18:34:47 10° NNE
Okean 2 Rocket 3.2 18:30:38 10° NNW 18:35:11 79° W 18:39:42 10° S
FENGYUN 3A 3.7 18:30:45 10° SSE 18:36:11 82° WSW 18:41:37 10° NNW
Cosmos 1633 4.2 18:33:48 10° NNW 18:37:11 35° W 18:40:33 10° SSW
Cosmos 1464 Rocket 4.0 18:34:07 10° S 18:40:14 80° W 18:46:26 10° N
Cosmos 44 3.4 18:37:35 10° NW 18:42:15 72° WSW 18:44:22 33° SSE
Cosmos 1833 Rocket 3.4 18:40:29 10° NW 18:45:57 53° WSW 18:51:23 10° S
SKYMED 2 4.4 18:43:32 14° N 18:47:04 50° WNW 18:51:15 10° SW
BREEZE-M DEB (TANK) 4.1 18:44:53 10° W 18:46:38 39° NW 18:46:38 39° NW
BREEZE-M DEB (TANK) 4.2 18:49:22 10° WNW 18:50:24 26° W 18:50:24 26° W
Cosmos 2297 3.8 18:46:08 10° SSW 18:51:51 77° WNW 18:54:15 37° NNE
Cosmos 1354 Rocket 4.4 18:48:11 10° SSW 18:53:25 63° WNW 18:55:56 31° N
ALOS 3.1 18:50:41 10° S 18:55:12 49° W 18:59:46 10° NNW
Meteor 1-11 Rocket 3.8 18:50:44 10° NNW 18:56:38 78° W 19:02:21 10° S
Cosmos 2278 Rocket 3.6 18:51:44 10° WSW 18:56:52 34° NW 19:01:01 15° N
CENTAUR R/B 4.1 18:51:49 10° W 18:57:28 30° NNW 19:01:24 19° NNE
Meteor 2-20 Rocket 4.4 19:01:06 10° NNW 19:07:14 79° W 19:13:17 10° S
CZ-4C R/B 3.0 19:14:24 10° NW 19:21:31 75° SW 19:24:02 47° SSE
Cosmos 2082 Rocket 4.4 19:29:16 10° NW 19:33:37 23° W 19:37:57 10° SSW
ATLAS 3B R/B 4.5 19:42:26 10° NNW 19:46:08 18° N 19:46:08 18° N
USA 234 3.6 19:55:34 60° WNW 19:55:34 60° WNW 20:01:12 10° WSW
Lacrosse 5 4.4 19:58:37 10° NW 19:59:43 15° NW 19:59:43 15° NW
